{"data":{"norad_id":65863,"epoch":"2026-05-25T03:20:52.791360Z","epoch_age_seconds":66128,"freshness":"FRESH","line1":"1 65863U 25223K   26145.13949990  .00023682  00000+0  70948-3 0  9995","line2":"2 65863  53.1614 298.8494 0001636  92.5727 267.5463 15.34414973 35914","mean_motion":15.34414973,"eccentricity":0.0001636,"inclination_deg":53.1614,"raan_deg":298.8494,"arg_perigee_deg":92.5727,"mean_anomaly_deg":267.5463,"bstar":0.00070948,"rev_number":3591,"period_min":93.846842303982,"perigee_km":461.5395834749,"apogee_km":463.77789184026,"semimajor_km":6840.7957376576,"source":"CELESTRAK","updated_at":"2026-05-25T13:38:20.973332Z"}}